Regional Weather Roundup
Issued by NWS

Home | Current Version | Previous Version | Text Only | Print | Product List | Glossary Off
Versions: 1 2 3 4 5 6 7 8 9 10 11 12 13 14 15 16 17 18 19 20 21 22 23 24 25 26 27 28 29 30 31 32 33 34 35 36 37 38 39 40 41 42 43 44 45 46 47 48 49 50

000
ASUS43 KIND 231359
RWRIN

WEATHER ROUNDUP FOR INDIANA
NATIONAL WEATHER SERVICE INDIANAPOLIS IN
1000 AM EDT SAT JUL 23 2016

NOTE: "FAIR" INDICATES FEW OR NO CLOUDS BELOW 12,000 FEET WITH NO
SIGNIFICANT WEATHER AND/OR OBSTRUCTIONS TO VISIBILITY.

* - STATION DOES NOT REPORT WEATHER SUCH AS PRECIPITATION OR FOG.

+ - STATION NOT QUALITY CONTROLLED BY THE NATIONAL WEATHER SERVICE.
    USE DATA WITH CAUTION...ESPECIALLY DEWPOINT AND RELATIVE
    HUMIDITY OBSERVATIONS.

INZ001>003-010>013-019-020-231500-
NORTHWEST INDIANA

CITY           SKY/WX    TMP DP  RH WIND       PRES   REMARKS
KNOX *+        SUNNY     81  72  74 CALM      30.00S
MONTICELLO +   SUNNY     80  72  76 CALM      30.02S
RENSSELAER +   CLOUDY    79  77  94 CALM      30.02F

$$

LMZ046-743>745-231500-
SOUTHERN LAKE MICHIGAN

STATION/POSITION TIME  TEMP    WIND        PRES    WAVE
                       AIR SEA DIR/SP/G            HT
                 (UTC) (F)     (DEG/KT/KT) (MB)    (FT)
BURNS HARBOR     1301   78     250/  5/  7 1016.3S
MICHIGAN CITY    1300   77     220/  7/  8   N/A
5NW MICH CITY    1300   77 75  230/  4/  4   N/A     1

$$

INZ004-005-014>016-021>024-231500-
NORTH CENTRAL INDIANA

CITY           SKY/WX    TMP DP  RH WIND       PRES   REMARKS
ELKHART        SUNNY     82  77  83 CALM      30.01F
GOSHEN         SUNNY     83  72  69 S6        30.01F
SOUTH BEND     SUNNY     82  76  81 S3        30.01S
WARSAW +       SUNNY     81  75  83 CALM      30.02S

$$

INZ006>009-017-018-025>027-231500-
NORTHEAST INDIANA

CITY           SKY/WX    TMP DP  RH WIND       PRES   REMARKS
ANGOLA *+        N/A     79  72  78 CALM      30.01F
FORT WAYNE     MOSUNNY   82  74  76 W5        30.03S

$$

INZ028-029-035-036-043>045-051>053-231500-
WEST CENTRAL INDIANA

CITY           SKY/WX    TMP DP  RH WIND       PRES   REMARKS
CRAWFORDSVL +  SUNNY     79  78  96 CALM      30.05R
GREENCASTLE +  SUNNY     79  79 100 SE5       30.05R
LAFAYETTE      PTSUNNY   80  76  87 W3        30.02S
TERRE HAUTE    SUNNY     80  74  81 S5        30.03R

$$

INZ030>032-037>040-046>048-054>057-064-065-231500-
CENTRAL INDIANA

CITY           SKY/WX    TMP DP  RH WIND       PRES   REMARKS
ANDERSON       SUNNY     81  73  78 CALM      30.04S
COLUMBUS       MOSUNNY   75  75 100 CALM      30.04S FOG
FRANKFORT +    CLOUDY    82  81  96 CALM      30.06S HX  96
INDIANAPOLIS   MOSUNNY   82  74  76 CALM      30.04R
-EAGLE CREEK   SUNNY     85  74  69 CALM      30.03S
KOKOMO *+      CLOUDY    81  72  74 W3        30.03S
SHELBYVILLE    SUNNY     82  73  74 CALM      30.03R
ZIONSVILLE +   SUNNY     80  74  82 CALM      30.05S

$$

INZ033-034-041-042-049-050-058-059-231500-
EAST CENTRAL INDIANA

CITY           SKY/WX    TMP DP  RH WIND       PRES   REMARKS
MUNCIE         SUNNY     83  74  74 NW6       30.04S

$$

INZ060-061-067>069-081>083-085>088-231500-
SOUTHWEST INDIANA

CITY           SKY/WX    TMP DP  RH WIND       PRES   REMARKS
EVANSVILLE     SUNNY     80  74  81 SE8       30.01F
HUNTINGBURG *+ SUNNY     81  72  74 SE7       30.03S

$$

INZ062-063-066-070>080-084-089>092-231500-
SOUTH CENTRAL AND SOUTHEAST INDIANA

CITY           SKY/WX    TMP DP  RH WIND       PRES   REMARKS
BLOOMINGTON    CLOUDY    76  74  93 CALM      30.04R FOG
MADISON *+     MOSUNNY   81  73  78 CALM      30.06S
SEYMOUR +      CLOUDY    79  79 100 CALM      30.03S

$$




USA.gov is the U.S. government's official web portal to all federal, state and local government web resources and services.